Regional Weather Roundup
Issued by NWS

Home | Current Version | Previous Version | Graphics & Text | Print | Product List | Glossary Off
Versions: 1 2 3 4 5 6 7 8 9 10 11 12 13 14 15 16 17 18 19 20 21 22 23 24 25 26 27 28 29 30 31 32 33 34 35 36 37 38 39 40 41 42 43 44 45 46 47 48 49 50

000
ASUS43 KMPX 211510
RWRMN
WEATHER ROUNDUP FOR MINNESOTA
NATIONAL WEATHER SERVICE TWIN CITIES/CHANHASSEN MN
1000 AM CDT MON APR 21 2014


NOTE: "FAIR" INDICATES FEW OR NO CLOUDS BELOW 12,000 FEET WITH NO
SIGNIFICANT WEATHER AND/OR OBSTRUCTIONS TO VISIBILITY. N/A MEANS
CURRENT SKY AND/OR WEATHER CONDITIONS ARE NOT AVAILABLE.

MNZ060>063-068>070-211600-
   Twin Cities Metro

CITY           SKY/WX    TMP DP  RH WIND       PRES   REMARKS
TWIN CITIES    CLOUDY    60  51  72 W10       29.93F
ST PAUL        PTSUNNY   62  49  62 NW12      29.93S
CRYSTAL        CLOUDY    63  41  44 NW10      29.92F
EDEN PRAIRIE   CLOUDY    61  51  70 W7        29.93F
LAKEVILLE      PTSUNNY   57  54  88 W7        29.94S
SOUTH ST PAUL  CLOUDY    64  54  71 NW8       29.92F
LAKE ELMO      PTSUNNY   63  50  63 NW7       29.92F
$$
MNZ001>005-007-008-013>017-022>024-027-028-211600-
   Northwest Minnesota

CITY           SKY/WX    TMP DP  RH WIND       PRES   REMARKS
BEMIDJI        CLOUDY    37  33  83 NW13G23   30.00R
HALLOCK          N/A     37  32  81 NW21G26   30.09R
ROSEAU         CLOUDY    37  34  87 NW18G24   30.01R
WARROAD        CLOUDY    37  34  87 W15       30.00R
THIEF RVR FALL CLOUDY    37  30  75 NW25      30.05S
CROOKSTON      PTSUNNY   41  34  75 N25G31    30.08R
FOSSTON        MOSUNNY   39  30  70 NW21G32   30.04R
DETROIT LAKES  CLOUDY    37  34  87 N20       30.07R
MOORHEAD       CLOUDY    45  37  76 N24       30.10S
PARK RAPIDS    CLOUDY    47  36  65 NW18      29.99R
$$
MNZ006-009>011-018-025>026-211600-
   North Central Minnesota

CITY           SKY/WX    TMP DP  RH WIND       PRES   REMARKS
BAUDETTE       CLOUDY    38  33  82 NW15G24   29.95R
FLAG ISLAND    CLOUDY    36  30  80 W18G26    29.95R
INTL FALLS     PTSUNNY   40  32  73 W17G25    29.89R
WASKISH        CLOUDY    39  34  81 W13G18    29.97R
BIG FORK       CLOUDY    46  36  66 NW12G18   29.92R
LONGVILLE      PTSUNNY   50  37  62 W15G21    29.95R
GRAND RAPIDS   MOSUNNY   52  36  54 W21       29.92R
CRANE LAKE     PTSUNNY   52  37  58 NW7       29.85R
ORR            CLOUDY    50  36  57 NW15      29.84R
COOK           SUNNY     54  39  58 W15G22    29.86R
$$
MNZ012-019>021-037-211600-
   Northeast Minnesota

CITY           SKY/WX    TMP DP  RH WIND       PRES   REMARKS
DULUTH         MOSUNNY   59  34  39 NW9       29.84F
ELY            SUNNY     54  32  43 W14G24    29.82S
HIBBING        SUNNY     57  36  45 W12G21    29.86S
EVELETH        SUNNY     57  34  41 W21G26    29.85S
DULUTH HARBOR  SUNNY     54  37  54 CALM      29.85F
TWO HARBORS    MOSUNNY   61  34  36 W13G20    29.81F
SILVER BAY     MOSUNNY   52  37  58 S5        29.80F
GRAND MARAIS     N/A     39  34  82 E7        29.81F
G MARAIS ARPRT CLOUDY    48  30  49 CALM      29.80F
$$
MNZ029>031-032-039>041-046>048-054>057-064-211600-
   West Central Minnesota

CITY           SKY/WX    TMP DP  RH WIND       PRES   REMARKS
FERGUS FALLS   CLOUDY    46  36  66 N21G32    30.04R
WHEATON        SUNNY     54  43  66 NW24      30.09R
MORRIS         SUNNY     54  37  54 NW25G31   30.02R
ALEXANDRIA     SUNNY     52  39  61 NW16G28   30.00R
ELBOW LAKE     FAIR      48  38  69 N21G29    30.04R
WADENA         MOSUNNY   48  37  66 NW15G22   30.00R
GLENWOOD       SUNNY     54  39  58 NW17G24   30.00S
APPLETON       SUNNY     57  37  47 N20       30.03R
BENSON         SUNNY     55  37  50 N18       30.02S
ORTONVILLE     SUNNY     54  37  54 NW20G29   30.05R
MADISON        SUNNY     61  37  41 NW23G29   30.05R
WILLMAR        FAIR      57  37  47 NW22      30.02R
$$
MNZ033>034-036-042>043-049>051-058-059-211600-
   Central Minnesota

CITY           SKY/WX    TMP DP  RH WIND       PRES   REMARKS
ST CLOUD       SUNNY     64  35  34 NW18      29.94S
SAUK CENTRE    FAIR      55  37  52 NW17G23   29.98S
PAYNESVILLE    SUNNY     57  35  43 NW16G24   29.99R
AITKIN         SUNNY     61  34  36 W8G17     29.90R
PINE RIVER     SUNNY     52  39  62 NW12G20   29.99R
BRAINERD       SUNNY     61  35  37 W14       29.94R
STAPLES        SUNNY     54  37  54 NW23      29.97R
LONG PRAIRIE   FAIR      55  37  50 NW20      29.97R
LITTLE FALLS   SUNNY     57  32  38 W20       29.95R
LITCHFIELD     SUNNY     63  39  42 NW14G20   29.98R
BUFFALO        SUNNY     62  40  44 W7        29.96R
MAPLE LAKE     SUNNY     64  40  41 NW12G17   29.95S
$$
MNZ037-044-045-052-053-211600-
   East Central Minnesota

CITY           SKY/WX    TMP DP  RH WIND       PRES   REMARKS
PRINCETON      SUNNY     64  36  34 W15       29.92S
MORA           SUNNY     63  32  31 NW14G21   29.91F
CAMBRIDGE      SUNNY     64  45  48 W6        29.89F
RUSH CITY      SUNNY     61  39  44 W3        29.90F
MOOSE LAKE     SUNNY     63  36  36 W14G22    29.86S
HINCKLEY       FAIR      63  36  36 W12G17    29.89F
CLOQUET        SUNNY     61  28  29 W12G21    29.85F
MCGREGOR       SUNNY     59  34  38 NW13G22   29.89F
$$
MNZ071>073-080-081-089-090-097-098-211600-
   Southwest Minnesota

CITY           SKY/WX    TMP DP  RH WIND       PRES   REMARKS
MONTEVIDEO     SUNNY     59  37  44 N20       30.04R
GRANITE FALLS  SUNNY     58  37  44 NW17G23   30.04R
CANBY          SUNNY     58  37  45 N21G26    30.06R
MARSHALL       SUNNY     61  36  39 N22       30.02S
REDWOOD FALLS  SUNNY     60  38  43 NW18G24   30.01R
OLIVIA         SUNNY     59  41  51 NW16G24   30.01R
PIPESTONE      SUNNY     61  34  36 N12G22    30.05R
WINDOM         MOSUNNY   63  37  39 NW22      30.01R
WORTHINGTON    MOSUNNY   61  34  36 N21G29    30.05R
JACKSON        MOSUNNY   64  36  34 VRB20G28  30.00R
TRACY          SUNNY     60  37  42 N18G25    30.04R
SLAYTON        SUNNY     59  33  37 N18       30.04R
$$
MNZ065>067-074>077-082>085-091>093-211600-
   South Central Minnesota

CITY           SKY/WX    TMP DP  RH WIND       PRES   REMARKS
MANKATO        CLOUDY    57  54  88 N5        29.97R
NEW ULM        MOSUNNY   63  46  55 N13       29.97S
ST JAMES       MOSUNNY   64  45  48 N16       29.99R
FAIRMONT       PTSUNNY   61  54  77 NW16      29.98R
GLENCOE        PTSUNNY   61  46  57 W9        29.96S
FARIBAULT      CLOUDY    59  54  82 W6        29.95S
OWATONNA       CLOUDY    61  55  82 NW7       29.94S
WASECA         CLOUDY    61  55  82 W6        29.96S
ALBERT LEA     CLOUDY    57  55  94 S3        29.93F
$$
MNZ078>079-086>088-094>096-211600-
   Southeast Minnesota

CITY           SKY/WX    TMP DP  RH WIND       PRES   REMARKS
ROCHESTER      CLOUDY    59  54  83 W9        29.92S
RED WING       CLOUDY    63  55  77 W6        29.91F
STANTON        CLOUDY    59  54  82 W5        29.92F
DODGE CENTER   CLOUDY    61  57  88 W6        29.92F
WINONA           N/A    N/A N/A N/A MISG        N/A
AUSTIN         CLOUDY    59  55  88 SW5       29.92F
PRESTON        CLOUDY    58  54  88 SW6       29.91F
$$
ABBREVIATIONS USED IN REMARKS
   TC - TEMPERATURES IN CELSIUS
  WCI - WIND CHILL INDEX
   HX - HEAT INDEX
  VSB - VISIBILITY
$$



USA.gov is the U.S. government's official web portal to all federal, state and local government web resources and services.